Total_Precipitation_Accumulation
0.92 1.01 1.10 1.38 1.60 1.75 1.89 1.97 2.05 2.11 2.32 2.47 2.45 2.37 2.23 2.00 1.88 1.84 1.74 1.60 1.50 1.52 1.49 1.33 1.18 1.09 1.00 0.88 0.80 0.75 0.70 0.64 0.62 0.63 0.54 0.45 0.43 0.39 0.35 0.34 0.34 0.32 0.31
0.79 0.90 0.96 1.11 1.29 1.49 1.71 1.89 1.96 2.05 2.06 2.11 2.32 2.46 2.52 2.36 2.08 1.91 1.80 1.70 1.63 1.60 1.54 1.50 1.41 1.28 1.20 1.15 1.08 1.02 0.95 0.88 0.87 0.86 0.82 0.65 0.49 0.39 0.34 0.35 0.37 0.36 0.36
0.65 0.74 0.82 1.02 1.14 1.28 1.51 1.79 1.92 2.01 2.01 2.03 2.26 2.47 2.64 2.50 2.23 1.90 1.73 1.73 1.74 1.74 1.64 1.60 1.59 1.45 1.32 1.23 1.20 1.16 1.11 1.04 1.00 1.00 1.04 0.88 0.61 0.41 0.33 0.30 0.31 0.34 0.36
0.57 0.61 0.72 0.86 0.97 1.13 1.30 1.48 1.66 1.81 1.97 2.03 2.07 2.11 2.23 2.23 2.04 1.94 1.86 1.86 1.86 1.84 1.78 1.71 1.69 1.62 1.48 1.31 1.26 1.23 1.15 1.10 1.04 1.01 0.94 0.85 0.69 0.62 0.47 0.33 0.30 0.33 0.34
0.58 0.58 0.69 0.83 0.88 0.99 1.24 1.37 1.45 1.61 1.79 1.94 2.00 2.09 2.04 2.08 2.16 2.13 2.07 1.97 1.91 1.86 1.78 1.71 1.69 1.62 1.52 1.44 1.42 1.36 1.31 1.22 1.14 1.07 1.01 0.98 0.83 0.69 0.66 0.50 0.35 0.36 0.36
0.67 0.71 0.77 0.81 0.82 0.87 1.08 1.29 1.32 1.40 1.52 1.72 1.93 1.99 1.90 1.92 1.97 1.96 1.93 1.94 1.94 1.90 1.80 1.67 1.60 1.55 1.52 1.47 1.45 1.47 1.42 1.36 1.28 1.21 1.14 1.13 1.06 0.89 0.84 0.74 0.52 0.44 0.39
0.63 0.71 0.75 0.71 0.71 0.75 0.88 1.07 1.18 1.29 1.35 1.47 1.62 1.80 1.87 1.85 1.88 1.90 1.86 1.79 1.71 1.64 1.63 1.63 1.56 1.50 1.44 1.42 1.41 1.43 1.41 1.36 1.31 1.24 1.19 1.18 1.13 1.03 1.00 0.95 0.75 0.60 0.48
0.49 0.54 0.62 0.66 0.68 0.68 0.74 0.81 0.88 0.96 1.04 1.11 1.22 1.36 1.56 1.65 1.62 1.67 1.68 1.65 1.58 1.56 1.56 1.54 1.54 1.54 1.51 1.45 1.43 1.42 1.39 1.37 1.29 1.19 1.14 1.10 1.05 1.04 1.05 1.04 1.02 0.93 0.71
0.47 0.49 0.57 0.59 0.64 0.67 0.71 0.71 0.73 0.78 0.88 0.90 0.97 1.01 1.18 1.32 1.36 1.42 1.41 1.35 1.36 1.42 1.44 1.43 1.44 1.45 1.46 1.42 1.41 1.38 1.34 1.33 1.29 1.23 1.16 1.06 0.95 0.94 0.96 0.98 1.04 1.14 1.03
0.46 0.45 0.51 0.54 0.58 0.63 0.67 0.65 0.65 0.67 0.78 0.84 0.88 0.90 0.95 1.03 1.16 1.24 1.18 1.15 1.17 1.21 1.25 1.24 1.25 1.28 1.29 1.30 1.31 1.26 1.22 1.20 1.16 1.15 1.15 1.11 1.03 1.00 1.01 1.04 1.09 1.16 1.22
0.46 0.46 0.50 0.53 0.56 0.61 0.62 0.59 0.64 0.65 0.70 0.76 0.76 0.77 0.80 0.84 0.89 0.96 0.99 0.98 1.02 1.02 1.03 1.04 1.06 1.05 1.09 1.13 1.16 1.12 1.09 1.11 1.10 1.08 1.11 1.12 1.11 1.13 1.11 1.16 1.21 1.26 1.32
0.45 0.44 0.45 0.49 0.53 0.54 0.51 0.50 0.56 0.59 0.65 0.69 0.67 0.67 0.70 0.72 0.74 0.76 0.81 0.82 0.85 0.89 0.91 0.92 0.93 0.90 0.88 0.93 0.97 1.00 0.98 0.98 0.99 1.02 1.07 1.10 1.11 1.17 1.19 1.23 1.27 1.29 1.27
0.33 0.33 0.34 0.36 0.37 0.37 0.37 0.41 0.45 0.44 0.47 0.50 0.49 0.51 0.52 0.55 0.61 0.64 0.64 0.67 0.72 0.77 0.80 0.81 0.83 0.84 0.82 0.83 0.85 0.86 0.87 0.88 0.88 0.89 0.92 0.94 0.99 1.05 1.07 1.12 1.18 1.19 1.19
0.25 0.27 0.28 0.27 0.28 0.29 0.31 0.34 0.32 0.34 0.37 0.37 0.37 0.39 0.42 0.45 0.48 0.51 0.50 0.50 0.54 0.60 0.64 0.69 0.72 0.73 0.75 0.78 0.82 0.84 0.84 0.82 0.81 0.81 0.83 0.86 0.91 0.95 1.01 1.06 1.09 1.12 1.13
0.20 0.22 0.23 0.23 0.24 0.25 0.26 0.27 0.28 0.34 0.39 0.40 0.39 0.38 0.38 0.40 0.42 0.43 0.44 0.43 0.44 0.44 0.47 0.53 0.61 0.66 0.68 0.72 0.77 0.79 0.82 0.82 0.82 0.84 0.89 0.93 1.03 1.04 1.01 0.98 0.96 0.99 1.05
0.15 0.16 0.18 0.19 0.20 0.22 0.24 0.28 0.32 0.40 0.45 0.47 0.43 0.40 0.38 0.38 0.36 0.34 0.34 0.35 0.36 0.37 0.40 0.45 0.49 0.56 0.63 0.79 0.78 0.74 0.75 0.82 0.86 0.87 0.87 0.91 1.00 0.98 0.97 0.92 0.87 0.89 0.97
0.12 0.13 0.14 0.16 0.19 0.25 0.30 0.36 0.40 0.47 0.48 0.51 0.47 0.42 0.38 0.37 0.34 0.31 0.31 0.33 0.35 0.38 0.42 0.44 0.48 0.54 0.67 0.84 0.80 0.84 0.77 0.79 0.84 0.86 0.83 0.79 0.76 0.78 0.70 0.75 0.81 0.82 0.82
0.08 0.08 0.10 0.12 0.13 0.18 0.26 0.33 0.40 0.51 0.54 0.53 0.51 0.50 0.49 0.50 0.52 0.51 0.52 0.52 0.51 0.53 0.58 0.63 0.66 0.69 0.78 0.84 0.76 0.73 0.68 0.71 0.73 0.71 0.69 0.64 0.59 0.57 0.58 0.61 0.67 0.59 0.55
0.05 0.06 0.06 0.08 0.08 0.11 0.17 0.25 0.38 0.53 0.64 0.69 0.68 0.68 0.72 0.77 0.80 0.82 0.81 0.80 0.81 0.81 0.79 0.77 0.73 0.69 0.69 0.69 0.64 0.60 0.55 0.56 0.55 0.52 0.51 0.51 0.48 0.55 0.63 0.58 0.54 0.49 0.47
0.08 0.07 0.07 0.09 0.11 0.13 0.20 0.33 0.49 0.63 0.73 0.76 0.80 0.83 0.89 0.96 0.93 0.91 0.88 0.81 0.75 0.74 0.73 0.71 0.67 0.61 0.54 0.49 0.44 0.42 0.39 0.39 0.36 0.35 0.35 0.41 0.42 0.52 0.59 0.53 0.50 0.47 0.40
0.18 0.18 0.18 0.21 0.23 0.26 0.35 0.49 0.60 0.68 0.71 0.71 0.72 0.75 0.74 0.76 0.74 0.72 0.69 0.64 0.57 0.51 0.46 0.43 0.40 0.35 0.33 0.32 0.31 0.31 0.29 0.30 0.31 0.31 0.29 0.31 0.41 0.46 0.50 0.51 0.45 0.44 0.48
0.22 0.29 0.35 0.37 0.38 0.40 0.47 0.54 0.55 0.55 0.53 0.50 0.48 0.45 0.41 0.38 0.38 0.39 0.40 0.39 0.35 0.30 0.27 0.24 0.23 0.20 0.20 0.22 0.24 0.28 0.31 0.34 0.32 0.30 0.28 0.30 0.42 0.48 0.49 0.46 0.45 0.52 0.55
0.10 0.14 0.20 0.24 0.25 0.25 0.28 0.30 0.27 0.23 0.20 0.17 0.15 0.14 0.12 0.12 0.13 0.13 0.14 0.17 0.19 0.18 0.17 0.17 0.18 0.18 0.17 0.20 0.23 0.26 0.33 0.37 0.35 0.31 0.34 0.38 0.42 0.45 0.43 0.44 0.47 0.49 0.46
0.04 0.04 0.06 0.07 0.07 0.08 0.09 0.09 0.08 0.06 0.05 0.04 0.04 0.05 0.05 0.06 0.07 0.08 0.09 0.11 0.13 0.13 0.15 0.16 0.16 0.17 0.17 0.18 0.21 0.25 0.31 0.37 0.38 0.37 0.38 0.40 0.40 0.40 0.40 0.42 0.42 0.41 0.41
0.03 0.04 0.04 0.04 0.05 0.05 0.05 0.06 0.06 0.06 0.06 0.05 0.05 0.06 0.06 0.07 0.07 0.08 0.09 0.11 0.12 0.14 0.17 0.19 0.20 0.22 0.22 0.20 0.28 0.35 0.36 0.40 0.43 0.47 0.45 0.41 0.38 0.37 0.35 0.35 0.36 0.37 0.40
0.05 0.05 0.05 0.06 0.07 0.08 0.08 0.09 0.10 0.10 0.10 0.09 0.09 0.09 0.09 0.10 0.10 0.11 0.11 0.13 0.15 0.17 0.20 0.21 0.22 0.21 0.24 0.27 0.34 0.39 0.42 0.47 0.54 0.59 0.51 0.40 0.34 0.33 0.34 0.36 0.37 0.38 0.39